Regional Weather Roundup
Issued by NWS Albany, NY

Home | Current Version | Previous Version | Text Only | Print | Product List | Glossary On
Versions: 1 2 3 4 5 6 7 8 9 10 11 12 13 14 15 16 17 18 19 20 21 22 23 24 25 26 27 28 29 30 31 32 33 34 35 36 37 38 39 40 41 42 43 44 45 46 47 48 49 50
893
ASUS41 KALY 201710
RWRALY

NEW YORK STATE HOURLY WEATHER ROUNDUP
NATIONAL WEATHER SERVICE ALBANY NY
100 PM EDT FRI OCT 20 2017

NOTE: "FAIR" INDICATES FEW OR NO CLOUDS BELOW 12,000 FEET WITH NO
SIGNIFICANT WEATHER AND/OR NO OBSTRUCTIONS TO VISIBILITY.

NYZ032-033-038>043-046>054-057>066-NYZ062>081-082-084-201800-
EAST


CITY           SKY/WX    TMP DP  RH WIND       PRES   REMARKS
ALBANY         SUNNY     66  41  40 W13       30.14F
GLENS FALLS    SUNNY     66  35  31 NW9       30.12F
POUGHKEEPSIE   SUNNY     69  34  27 N8        30.11F
NEWBURGH       SUNNY     68  39  34 W14       30.14F
MONTGOMERY     SUNNY     71  32  23 NW8       30.11F
WHITE PLAINS   SUNNY     68  31  25 NW13      30.12F
ISLIP          MOSUNNY   71  35  26 W13       30.11F
NEW YORK CITY  MOSUNNY   70  29  21 NW16      30.12F
CENTRAL PARK   SUNNY     71  25  17 NW9G17    30.15F
$$

NYZ005>009-017-018-044>046-055-056-201800-
CENTRAL


CITY           SKY/WX    TMP DP  RH WIND       PRES   REMARKS
FULTON         SUNNY     64  38  38 NW8       30.23F
SYRACUSE       MOSUNNY   65  37  35 W12       30.22F
ROME           SUNNY     65  38  36 W13       30.19F
ELMIRA         SUNNY     67  31  26 NE10      30.24F
BINGHAMTON     SUNNY     61  34  36 NW8       30.22F
MONTICELLO     SUNNY     65  31  28 NW14G20   30.18F
$$

NYZ026>034-041>043-087-201800-
NORTH


CITY           SKY/WX    TMP DP  RH WIND       PRES   REMARKS
WATERTOWN      SUNNY     60  44  55 SW10      30.21F
FORT DRUM      NOT AVBL
OGDENSBURG     FAIR      64  39  38 W7        30.17F
MASSENA        SUNNY     62  38  40 W14       30.15F
SARANAC LAKE   SUNNY     58  30  34 VRB7      30.14F
PLATTSBURGH    SUNNY     66  32  28 NW9       30.10F
$$

NYZ001>004-010>016-019>021-085-201800-
WEST


CITY           SKY/WX    TMP DP  RH WIND       PRES   REMARKS
NIAGARA FALLS  SUNNY     68  39  34 SW8       30.25F
BUFFALO        MOSUNNY   65  40  39 SW7       30.25F
DUNKIRK        SUNNY     64  48  56 W9        30.27F
JAMESTOWN      SUNNY     62  39  42 E3        30.29F
WELLSVILLE     SUNNY     63  28  26 NW6       30.29F
ROCHESTER      MOSUNNY   65  38  36 SW7       30.24F
PENN YAN       SUNNY     64  33  31 W6        30.25F
$$

             KEY
       WCI = WIND CHILL INDEX
       VSB = VISIBILITY
       HX  = HEAT INDEX
$$




USA.gov is the U.S. government's official web portal to all federal, state and local government web resources and services.